User: anonymous   Login
Location: Bruch
(44.2051°N, 0.4120°E)
Time: 23:44:47
(UTC+00:00)
Language:

Cosmos 1500 Rocket - Orbit

View from above orbital plane
View from above orbital plane
View from above satellite
View from above satellite

Ground track
Ground track

The orbit data is extracted from the following two-line orbital elements,

1 14373U 83099B   21061.24638520  .00000074  00000-0  58893-5 0  9996
2 14373  82.5379  58.9661 0021740  78.8393 291.8280 14.83817913 21672
Epoch (UTC): 02 March 2021 05:54:47
Eccentricity: 0.0021740
inclination: 82.5379°
perigee height: 602 km
apogee height: 632 km
right ascension of ascending node: 58.9661°
argument of perigee: 78.8393°
revolutions per day: 14.83817913
mean anomaly at epoch: 291.8280°
orbit number at epoch: 2167

The dashed part of the orbit path shows where the satellite is in the earth's shadow,  

DLR